ATLAS 5 CENTAUR DEB, 43976

Orbit data source: Space-Track

ATLAS 5 CENTAUR DEB, 43976 is space debris in HEO originally from a launch on Wed, 17 Sep 2014 UTC launched from the Air Force Eastern Test Range (AFETR). Debris objects in space refer to the collection of defunct objects orbiting the Earth. Examples of debris include non-operational satellites, rocket bodies, and fragments generated from explosions, collisions, or faulty payload assembly.

Loading next visibility...
Identifier
43976, 2014-055AF
Orbit
HEO
Country
Flag of USUS
Related business
Flag of USUnited Launch Alliance/Lockheed Martin (US)
Manufacturer
Unknown
Mission
Spacecraft
Bus & Motor
Unknown
Mass
Unknown
Launch date (UTC)
2014-09-17 (11 years ago)
Launch vehicle
Unknown
Launch site
Air Force Eastern Test Range (AFETR)
Object type
Payload
Rocket body
Debris
Shape & HBR
Unknown
Radar Cross Section
Small (<0.1 m²)

Expand to show TLE details & history
Last TLE update: 4 days ago

TLE from 4 days ago
0 ATLAS 5 CENTAUR DEB
1 43976U 14055AF  25238.67440471 -.00000033  00000-0  00000-0 0  9994
2 43976  19.4687 177.6218 4842228 102.4425 313.8709  1.83493372 46793
Epoch: 2025-08-26T16:11Z
TLE epoch observation values (Epoch: 2025-08-26T16:11:08.566Z)
Latitude
0.00004°
Longitude
-40.41345°
Altitude
17,751.648 km
Speed
4.347 km/s
True Right ascension
11h 50m 08s
True Declination
0° 00' 00"
Sunlit
Object was in daylight at epoch
Visualization orbit readout
Latitude
Unknown
Longitude
Unknown
Altitude
Unknown
Speed
Unknown
Apparent Right ascension
Unknown
Apparent Declination
Unknown
Sunlit
N/A
Visualization observer readout
Local Sidereal Time
15:42:32
Azimuth
Unknown
Elevation
Unknown
Doppler factor
Unknown
Orbital elements
Apogee altitude
35,454.725 km
Perigee altitude
8,159.058 km
Semi-major axis
28,185.029 km
Eccentricity
0.48422
Inclination
19.4687°
RAAN
177.6218°
Arg. of periapsis
102.4425°
True anomaly
257.49013°
Mean anomaly
313.8709°
Eccentric anomaly
287.39594°
Mean motion
0.45869 °/min
Orbital period
784.85 mins
BSTAR
0
Loading maneuver chart data...
Computing Atmospheric mass density...
Loading historical data...
Loading historical data...
Loading historical data...
Loading historical data...
Loading historical data...
Loading historical data...
Loading historical data...

Documentation

Showing up to 5 results
|